Flag for Bahrain Weather past 2 weeks in Riffa, Bahrain

Now
79 °F

Sunny.


Feels Like: 79 °F
Forecast: 72 / 87 °F
Wind: 8 mph from Northeast

Location: Bahrain International Airport

Current Time: Mar 29, 2015 at 4:19:16 PM

Latest Report: Mar 29, 2015 at 3:00 PM


Visibility: 10 mi

Pressure: 29.89 "Hg

Humidity: 37%

Dew point: 50 °F

Location of RiffaLocation

Historic Weather in Riffa — Graph

°F

Riffa temperature yesterday

Maximum temperature yesterday: 79 °F (at 12:00 PM)
Minimum temperature yesterday: 68 °F (at 6:00 AM)
Average temperature yesterday: 73 °F

Past Weeks' High & Low Weather Summary

 TemperatureHumidityPressure
High84 °F (Mar 21, 2:00 PM)94% (Mar 16, 4:00 AM)30.12 "Hg (Mar 16, 4:00 AM)
Low66 °F (Mar 23, 10:00 PM)23% (Mar 29, 10:00 AM)29.80 "Hg (Mar 19, 12:00 AM)
Average73 °F70%29.95 "Hg
* Reported Mar 14 3:00 PM — Mar 29 3:00 PM, Riffa, Weather by CustomWeather, © 2015

Note: Actual official high and low records may vary slightly from our data, if they occured in-between our weather recording intervals... More about our weather records

Advertising

Riffa weather history for previous 24 hours

 ConditionsComfort  
Time TempWeatherWind HumidityBarometerVisibility
3:00 PM
Sun, Mar 29
79 °FSunny.8 mph37%29.89 "Hg10 mi
2:00 PM81 °FSunny.8 mph32%29.92 "Hg10 mi
1:00 PM81 °FPassing clouds.8 mph30%29.92 "HgN/A
12:00 PM79 °FPassing clouds.8 mph30%29.95 "HgN/A
11:00 AM81 °FPassing clouds.7 mph23%29.98 "HgN/A
10:00 AM79 °FPassing clouds.8 mph23%29.98 "HgN/A
9:00 AM77 °FSunny.5 mph28%29.98 "Hg10 mi
8:00 AM75 °FSunny.3 mph39%29.98 "Hg10 mi
7:00 AM70 °FClear.3 mph69%29.95 "Hg5 mi
6:00 AM66 °FClear.2 mph73%29.95 "Hg5 mi
5:00 AM66 °FClear.2 mph73%29.95 "Hg10 mi
4:00 AM68 °FClear.3 mph73%29.92 "Hg10 mi
3:00 AM68 °FClear.5 mph69%29.92 "Hg10 mi
2:00 AM68 °FClear.3 mph73%29.92 "Hg10 mi
1:00 AM70 °FClear.5 mph69%29.95 "Hg10 mi
12:00 AM70 °FClear.6 mph69%29.98 "Hg10 mi
11:00 PM
Sat, Mar 28
70 °FClear.7 mph69%29.98 "Hg10 mi
10:00 PM70 °FClear.9 mph69%29.98 "Hg10 mi
9:00 PM72 °FClear.8 mph65%29.98 "Hg10 mi
8:00 PM72 °FClear.8 mph65%29.98 "Hg10 mi
7:00 PM72 °FClear.9 mph65%29.95 "Hg10 mi
6:00 PM73 °FClear.13 mph61%29.95 "Hg10 mi
5:00 PM75 °FSunny.16 mph57%29.95 "Hg10 mi
4:00 PM77 °FSunny.15 mph51%29.95 "Hg10 mi
Weather by CustomWeather, © 2015

See weather overviewHow to use our weather pages